Powrót do katalogu

ARIANE 42P DEB

AktywnyLEO
NORAD 44508·DEBRIS·🇫🇷 France

Wystrzelony Aug 10, 1992 z Guiana Space Centre

Loading…

Następne Przeloty (najbliższe 24 godziny)

TLE

ŚwieżeSource: Space-Track

Epoka: Sep 13, 2026, 19:44 UTC

1 44508U 92052F   26256.82222994  .00001253  00000-0  46798-2 0  9995
2 44508  66.0215 195.4335 0383409 242.4203 113.7379 12.73460053114454

Śledź ARIANE 42P DEB w czasie rzeczywistym z AllMySat

Download on the App Store